This is the latest recevied weather packets stored in our database for station/object SP3VBV-2. If no packets are shown the sender has not sent any weather packets the latest 10 day(s).
| Time | Temp. | Humidity | Pressure | Rain* | Wind** | Luminosity | Snow |
|---|---|---|---|---|---|---|---|
| 1777397495 | 10.56° C | 37% | 1023.2 hPa | - | - | - | - |
| 1777396895 | 10.56° C | 38% | 1023.1 hPa | - | - | - | - |
| 1777396295 | 11.11° C | 36% | 1023.1 hPa | - | - | - | - |
| 1777395695 | 11.11° C | 36% | 1023.1 hPa | - | - | - | - |
| 1777395095 | 10.56° C | 36% | 1023.1 hPa | - | - | - | - |
| 1777394495 | 11.11° C | 35% | 1023.1 hPa | - | - | - | - |
| 1777393895 | 11.67° C | 33% | 1023.1 hPa | - | - | - | - |
| 1777392703 | 13.33° C | 32% | 1023.1 hPa | - | - | - | - |
| 1777391503 | 11.11° C | 34% | 1023.2 hPa | - | - | - | - |
| 1777390903 | 12.78° C | 35% | 1023.2 hPa | - | - | - | - |
| 1777390303 | 11.11° C | 34% | 1023.4 hPa | - | - | - | - |
| 1777389703 | 11.11° C | 34% | 1023.4 hPa | - | - | - | - |
| 1777389105 | 11.67° C | 35% | 1023.4 hPa | - | - | - | - |
| 1777388504 | 11.67° C | 36% | 1023.3 hPa | - | - | - | - |
| 1777387903 | 11.67° C | 36% | 1023.3 hPa | - | - | - | - |
| 1777387303 | 11.67° C | 33% | 1023.5 hPa | - | - | - | - |
| 1777386703 | 11.67° C | 34% | 1023.6 hPa | - | - | - | - |
| 1777386103 | 11.67° C | 33% | 1023.6 hPa | - | - | - | - |
| 1777385510 | 11.67° C | 33% | 1023.6 hPa | - | - | - | - |
| 1777384909 | 12.22° C | 35% | 1023.8 hPa | - | - | - | - |
| 1777384303 | 12.22° C | 32% | 1023.9 hPa | - | - | - | - |
| 1777383708 | 11.11° C | 31% | 1024 hPa | - | - | - | - |
| 1777383108 | 11.11° C | 32% | 1024 hPa | - | - | - | - |
| 1777382509 | 10.56° C | 31% | 1024 hPa | - | - | - | - |
| 1777381903 | 11.11° C | 31% | 1024.1 hPa | - | - | - | - |
* Rain since midnight (hover to see other rain measurements)
** Current wind speed in m/s (hover to see current wind gust speed)